Flag for Spain Weather past 2 weeks in Santa Cruz de Tenerife, Canary Islands, Spain

Now
54 °F

Passing clouds.


Feels Like: 49 °F
Forecast: N/A
Wind: 16 mph from Northwest

Location: Tenerife / Los Rodeos

Current Time: Mar 27, 2015 at 10:39:48 PM

Latest Report: Mar 27, 2015 at 9:30 PM


Visibility: N/A

Pressure: 30.33 "Hg

Humidity: 94%

Dew point: 52 °F

Location of Santa Cruz de TenerifeLocation

Historic Weather in Santa Cruz de Tenerife — Graph

°F

Santa Cruz de Tenerife temperature yesterday

Maximum temperature yesterday: 57 °F (at 2:30 PM)
Minimum temperature yesterday: 50 °F (at 6:00 AM)
Average temperature yesterday: 53 °F

Past Weeks' High & Low Weather Summary

 TemperatureHumidityPressure
High64 °F (Mar 16, 9:30 AM)100% (Mar 16, 9:30 PM)30.36 "Hg (Mar 16, 9:30 PM)
Low46 °F (Mar 13, 6:30 AM)8% (Mar 16, 9:30 AM)29.83 "Hg (Mar 22, 3:30 PM)
Average53 °F83%30.11 "Hg
* Reported Mar 12 9:00 PM — Mar 27 9:00 PM, Santa Cruz de Tenerife, Weather by CustomWeather, © 2015

Note: Actual official high and low records may vary slightly from our data, if they occured in-between our weather recording intervals... More about our weather records

Advertising

Santa Cruz de Tenerife weather history for previous 24 hours

 ConditionsComfort  
Time TempWeatherWind HumidityBarometerVisibility
9:00 PM
Fri, Mar 27
54 °FPassing clouds.15 mph94%30.33 "HgN/A
8:30 PM54 °FPassing clouds.15 mph94%30.30 "HgN/A
8:00 PM54 °FPassing clouds.15 mph94%30.30 "HgN/A
7:30 PM55 °FCool.16 mph94%30.30 "HgN/A
7:00 PM55 °FPartly sunny.15 mph88%30.30 "HgN/A
6:30 PM55 °FScattered clouds.14 mph88%30.30 "HgN/A
6:00 PM57 °FScattered clouds.15 mph82%30.27 "HgN/A
5:30 PM59 °FPassing clouds.14 mph82%30.27 "HgN/A
5:00 PM61 °FPassing clouds.10 mph77%30.27 "HgN/A
4:30 PM61 °FPassing clouds.8 mph77%30.27 "HgN/A
4:00 PM63 °FPassing clouds.3 mph73%30.27 "HgN/A
3:30 PM64 °FPassing clouds.3 mph68%30.27 "HgN/A
3:00 PM64 °FPassing clouds.5 mph60%30.27 "HgN/A
2:30 PM63 °FPassing clouds.5 mph68%30.30 "HgN/A
2:00 PM63 °FPassing clouds.7 mph73%30.30 "HgN/A
1:30 PM63 °FPassing clouds.7 mph68%30.30 "HgN/A
1:00 PM61 °FPassing clouds.3 mph72%30.33 "HgN/A
12:30 PM61 °FScattered clouds.5 mph72%30.33 "HgN/A
12:00 PM61 °FScattered clouds.5 mph72%30.33 "HgN/A
11:30 AM59 °FPartly sunny.1 mph77%30.36 "HgN/A
11:00 AM57 °FPartly sunny.5 mph77%30.36 "HgN/A
10:30 AM57 °FPartly sunny.7 mph82%30.36 "HgN/A
10:00 AM57 °FPartly sunny.1 mph82%30.36 "HgN/A
9:30 AM55 °FPartly sunny.2 mph82%30.36 "HgN/A
9:00 AM54 °FPartly sunny.1 mph88%30.33 "HgN/A
8:30 AM54 °FPartly sunny.2 mph88%30.33 "HgN/A
8:00 AM52 °FPartly sunny.5 mph94%30.33 "HgN/A
7:30 AM52 °FPartly sunny.5 mph94%30.30 "HgN/A
7:00 AM52 °FPassing clouds.6 mph94%30.30 "HgN/A
6:30 AM52 °FPassing clouds.5 mph94%30.30 "HgN/A
6:00 AM52 °FPassing clouds.5 mph94%30.30 "HgN/A
11:00 PM
Thu, Mar 26
52 °FPassing clouds.No wind88%30.33 "HgN/A
10:30 PM52 °FPartly cloudy.3 mph88%30.33 "HgN/A
10:00 PM52 °FPartly cloudy.3 mph88%30.33 "Hg6 mi
Weather by CustomWeather, © 2015

See weather overviewHow to use our weather pages